DECAYED

STARLINK-5740, 55595 (Decayed)

Orbit data source: Space-Track

STARLINK-5740, 55595 was a payload satellite owned by SpaceX/Seattle (US) in LEO that was launched on Sun, 12 Feb 2023 UTC via an FALCON 9 launch vehicle from the Air Force Eastern Test Range (AFETR). Payload-class satellites include a variety of spacecraft equipped with specific instruments for various scientific and technological missions. These include communications satellites like Starlink; space stations such as the ISS; scientific satellites like the Hubble; Earth observation satellites from companies like Planet Labs, Umbra, and HawkEye 360; GPS; miniature CubeSats for education and research; and military/defense satellites.

Not visible in the next 10 days
Identifier
55595, 2023-020AC
Orbit
Decayed
Country
Flag of USUS
Related business
Manufacturer
SpaceX/Seattle
Mission
Decayed Commercial Communications
Bus & Motor
STARLINK, Unknown motor
Mass
305 kg wet, ~290 kg dry
Launch date (UTC)
2023-02-12 (4 years ago)
Launch vehicle
FALCON 9
Launch site
Air Force Eastern Test Range (AFETR)
Object type
Payload
Rocket body
Debris
Shape & HBR
Box + 1 Pan, 10.1 m
Radar Cross Section
13.562 m², Large (>1 m²)

Expand to show TLE details & history
Last TLE update: 1 year ago

TLE from 1 year ago
0 STARLINK-5740
1 55595U 23020AC  25206.18722686  .08860957  93384-5  45376-3 0  9994
2 55595  42.9743 119.8258 0006633 262.6788 215.4272 16.42463812135167
Epoch: 2025-07-25T04:29Z
TLE epoch observation values (Epoch: 2025-07-25T04:29:36.400Z)
Latitude
37.12656°
Longitude
-124.60498°
Altitude
164.592 km
Speed
7.811 km/s
True Right ascension
16h 23m 45s
True Declination
36° 56' 46"
Sunlit
Object was in daylight at epoch
Visualization orbit readout
Latitude
Unknown
Longitude
Unknown
Altitude
Unknown
Speed
Unknown
Apparent Right ascension
Unknown
Apparent Declination
Unknown
Sunlit
N/A
Visualization observer readout
Local Sidereal Time
06:57:00
Azimuth
Unknown
Elevation
Unknown
Doppler factor
Unknown
Orbital elements
Apogee altitude
165.64 km
Perigee altitude
156.965 km
Semi-major axis
6,539.439 km
Eccentricity
0.00066
Inclination
42.9743°
RAAN
119.8258°
Arg. of periapsis
262.6788°
True anomaly
215.38317°
Mean anomaly
215.4272°
Eccentric anomaly
215.40518°
Mean motion
4.10424 °/min
Orbital period
87.71 mins
BSTAR
0.00045376
Loading maneuver chart data...
Computing Atmospheric mass density...
Loading historical data...
Loading historical data...
Loading historical data...
Loading historical data...
Loading historical data...
Loading historical data...
Loading historical data...

Documentation

Showing up to 5 results
|